Theta_e
338 339 342 349 348 349 348 349 348 349 348 348 348 347 346 345 343 342 341 343 342 342 344 346 346 346 345 343 342 341 341 340 340 340 341 341 340 338 338 338 337 338 338 338 339 338 338 338 338 337 337 337 336 337 337 338 339 340 339 338 338 337 335 335 338 340 338 337 340 342 342 342 342 341 341 341 340 340 339 338 338 336 335 339 340
338 339 342 346 349 348 348 349 349 348 348 348 348 347 345 344 343 341 340 340 341 341 346 346 346 344 344 343 342 342 341 341 341 340 340 340 340 337 337 336 336 337 338 338 338 338 337 337 337 337 337 338 337 336 337 338 340 339 339 338 338 339 340 340 339 339 339 338 339 340 339 340 341 341 341 340 340 339 340 339 338 334 333 340 340
339 340 342 346 349 349 349 347 349 348 348 348 347 346 345 343 341 340 339 338 339 340 345 345 344 343 342 342 341 340 339 340 339 340 342 343 342 338 336 336 338 338 339 338 338 337 338 337 337 336 335 336 336 336 337 338 338 338 338 338 338 338 338 338 338 337 338 339 339 339 338 340 340 339 340 340 340 339 339 339 339 338 336 340 339
338 339 342 346 348 348 348 348 348 348 348 347 346 345 344 343 342 341 340 340 340 342 345 345 344 342 341 339 338 339 338 339 339 340 344 344 341 338 336 336 337 337 337 337 336 336 335 335 337 336 336 336 335 337 337 337 337 337 337 337 337 337 337 336 337 337 339 339 337 337 333 329 335 339 340 340 339 339 340 339 339 339 339 340 340
339 340 343 344 345 347 348 348 348 347 348 347 346 345 344 343 342 340 339 342 342 343 343 341 340 339 338 338 336 339 338 339 339 340 341 340 341 338 337 338 338 337 335 336 337 338 338 337 336 336 335 335 335 336 336 337 337 337 337 336 336 336 336 336 337 338 339 340 337 331 326 329 330 338 339 340 339 339 338 338 339 339 339 339 339
339 341 342 343 343 346 348 347 348 348 348 347 347 346 344 342 341 340 341 341 341 341 342 339 338 338 338 337 337 338 338 338 339 339 340 341 342 339 336 336 336 336 337 338 336 334 335 335 336 336 334 334 335 335 336 336 336 336 336 335 336 337 338 339 338 338 337 336 333 325 325 329 332 335 339 340 339 339 339 338 339 339 339 339 338
340 341 342 342 343 345 347 347 347 348 347 347 346 345 344 342 342 342 341 340 340 342 341 337 338 339 338 336 337 338 338 338 338 338 339 341 341 340 340 338 337 337 336 335 335 335 334 334 334 335 335 334 335 335 335 335 335 335 335 336 336 337 338 339 338 337 335 331 325 325 326 328 331 333 340 338 339 340 339 339 340 339 340 338 337
340 341 342 342 342 345 346 347 347 347 347 346 345 345 344 343 342 341 340 340 340 339 338 338 339 338 338 338 337 338 339 338 338 340 340 338 340 342 342 339 337 335 338 338 337 337 337 335 335 334 335 334 334 335 334 334 334 334 334 335 336 336 337 338 338 336 334 328 325 326 327 327 329 331 339 339 338 340 340 339 339 339 339 337 336
338 340 341 341 342 344 345 346 347 347 347 346 345 344 344 343 343 343 342 340 339 338 338 338 340 339 337 336 338 339 338 338 338 339 339 338 341 341 340 339 339 338 335 334 335 336 336 335 334 334 333 333 334 334 333 333 333 333 334 334 335 335 335 336 335 335 332 328 326 324 324 326 328 329 338 338 340 340 340 339 339 339 337 335 334
337 338 338 338 341 343 345 346 347 347 347 345 344 344 344 342 342 343 343 341 340 339 340 341 341 340 339 337 338 336 338 338 338 337 338 338 338 338 338 338 338 338 338 337 335 333 334 335 334 333 334 333 333 332 331 331 332 333 333 333 334 334 334 335 332 333 329 329 327 327 331 337 327 330 336 338 338 340 338 337 337 336 335 334 334
336 337 337 337 338 342 345 347 347 347 346 344 344 344 343 343 343 344 343 341 340 340 341 342 342 340 339 337 336 339 337 337 337 337 338 338 338 338 338 338 337 336 337 336 333 335 335 334 334 334 334 332 331 331 330 331 331 332 332 333 333 333 334 333 327 326 329 329 327 326 332 337 326 330 338 339 340 338 336 337 336 336 335 334 333
336 337 337 336 344 341 344 345 346 347 345 343 343 342 343 345 345 345 344 342 341 341 343 343 342 340 338 336 336 336 337 337 337 338 337 337 337 337 337 337 337 337 337 336 336 336 335 333 333 332 332 332 331 330 330 329 330 330 331 332 332 332 332 330 323 321 325 328 327 326 325 326 328 334 338 338 339 338 337 337 337 336 336 334 332
336 336 337 337 338 340 341 343 344 346 346 344 342 341 341 342 344 345 344 342 342 341 343 341 341 339 337 337 336 336 337 336 337 338 337 336 336 336 337 337 337 337 336 336 335 335 333 334 333 332 331 331 330 330 329 329 329 330 330 331 331 331 330 328 320 321 324 324 324 324 324 326 328 338 338 338 338 339 338 338 337 336 335 334 332
335 336 337 337 337 344 339 341 342 344 345 345 344 342 341 341 344 344 344 345 343 342 341 340 340 339 338 337 336 335 336 337 338 337 337 337 337 337 336 337 336 336 336 335 335 335 335 333 333 333 331 331 330 330 329 328 328 329 329 330 331 332 329 324 325 318 323 323 326 325 322 326 328 337 337 338 338 338 339 338 337 336 334 332 331
335 335 336 337 338 338 342 338 340 341 343 343 343 343 341 340 340 341 344 344 344 344 341 341 340 340 338 337 337 336 337 338 338 337 338 338 337 336 335 335 335 335 335 334 334 334 334 334 333 333 332 331 330 330 328 328 328 328 329 330 331 331 328 319 319 315 321 324 323 324 321 323 338 337 337 337 338 338 339 337 336 334 333 332 330
336 335 336 337 336 337 338 341 337 337 339 340 340 341 342 342 342 341 341 344 344 343 342 341 341 340 338 337 337 338 338 338 337 339 340 339 336 335 335 335 335 335 335 334 334 333 333 333 334 332 332 331 330 330 329 328 329 329 330 331 332 329 326 321 315 314 314 321 322 324 321 323 339 336 336 337 338 338 337 338 336 334 332 331 330
335 335 336 335 335 335 335 337 335 334 334 335 337 338 340 342 343 341 341 342 343 343 343 343 341 340 338 338 338 339 339 338 337 338 339 337 336 338 337 335 334 334 334 334 333 333 334 334 333 333 332 331 331 330 330 330 330 330 331 331 331 328 324 321 315 313 316 321 323 322 320 324 336 337 337 337 337 337 337 336 336 334 332 330 330
335 335 335 335 334 334 335 333 333 333 332 332 333 336 338 340 340 340 340 342 343 343 342 342 342 341 340 339 339 340 339 338 338 338 338 338 338 337 337 335 334 334 334 334 333 333 333 333 332 332 333 332 332 332 332 332 331 331 331 332 329 326 323 320 313 314 319 324 319 323 321 334 336 336 336 337 337 337 337 337 335 334 332 330 329
334 334 335 334 334 333 333 331 331 330 330 329 329 333 334 336 337 337 339 341 342 341 340 340 340 340 339 338 338 338 337 337 337 337 337 336 335 335 336 336 334 334 333 333 333 333 333 333 333 332 333 333 333 333 332 332 332 331 331 329 327 323 320 316 313 313 317 317 319 318 320 336 336 336 336 336 337 337 337 337 335 333 331 330 329
333 333 333 334 333 333 332 331 330 329 329 328 328 329 331 331 333 335 337 339 339 338 337 335 335 334 334 334 334 333 332 333 333 331 333 335 334 329 333 334 334 334 333 333 333 333 332 333 333 333 333 333 334 333 332 331 332 332 330 328 324 320 313 311 313 313 315 317 320 316 329 334 336 336 334 337 337 337 336 336 334 332 331 330 329
334 333 333 333 332 332 332 330 330 329 328 328 328 328 330 329 330 331 332 335 336 335 334 331 328 328 328 327 329 331 328 328 328 328 328 327 326 326 331 334 335 334 334 333 333 332 332 332 333 332 333 334 333 333 331 331 332 331 329 325 320 314 311 311 312 315 315 316 319 317 332 332 335 336 335 336 337 337 337 337 335 332 331 330 329
332 332 333 333 332 332 331 331 330 329 328 328 329 329 329 329 328 329 329 331 332 330 330 332 333 330 325 327 332 331 328 327 327 328 326 324 324 323 326 331 334 334 335 333 333 332 332 332 332 332 333 333 330 319 318 320 323 325 325 322 315 312 311 312 311 316 315 315 315 320 331 330 334 337 337 336 336 336 337 336 335 332 331 330 329
329 331 332 333 332 332 331 330 330 329 327 327 329 328 327 327 327 328 329 327 330 330 331 332 331 330 329 330 329 326 327 327 327 327 326 322 325 322 324 328 332 331 333 334 333 332 332 332 332 332 332 332 321 319 317 315 313 318 318 316 313 313 311 311 311 315 315 313 313 325 331 330 332 336 335 336 336 336 336 336 334 332 332 330 328
329 330 332 334 334 332 331 331 330 329 328 327 328 327 326 326 326 327 328 327 328 328 329 330 330 329 329 329 329 326 325 325 328 328 327 325 323 322 324 327 329 328 329 331 331 331 332 332 332 332 331 325 320 318 316 316 315 314 311 311 311 312 312 312 311 314 314 314 313 326 330 330 331 334 336 336 336 336 336 336 335 333 331 331 329
329 329 329 333 333 332 331 331 330 330 329 328 327 327 327 326 326 327 327 327 326 326 327 328 328 328 328 328 328 326 325 324 326 327 325 325 325 326 326 327 327 326 325 323 321 320 322 317 318 323 322 323 319 317 315 315 316 316 316 314 314 314 314 314 311 313 313 314 313 323 328 329 330 333 335 336 336 336 336 335 335 333 332 331 330
323 327 328 330 333 333 332 331 330 329 329 329 328 327 327 325 325 326 326 326 326 326 326 327 327 327 327 328 327 325 323 324 327 327 325 325 325 326 327 328 327 327 326 325 323 321 319 317 320 325 324 322 319 316 314 315 316 316 316 316 315 315 315 315 312 313 314 314 314 322 325 329 329 331 334 336 336 336 335 335 335 334 332 331 330
323 327 328 328 331 333 332 332 330 329 329 330 330 328 326 326 325 325 326 326 325 325 325 326 326 327 327 327 326 324 323 324 326 327 326 326 326 327 327 327 327 327 326 324 322 321 319 318 319 322 321 320 318 316 314 314 315 316 316 316 316 316 316 315 313 313 314 313 315 319 324 328 327 329 333 335 336 337 336 336 335 334 333 331 330
322 325 327 329 328 331 333 332 331 330 329 330 330 328 327 326 325 324 326 325 325 325 325 326 326 326 326 326 326 325 323 323 326 327 327 326 326 326 327 327 327 327 326 324 323 323 321 318 317 318 318 317 316 315 315 315 315 315 316 316 316 315 315 315 315 313 313 313 313 316 321 326 329 329 331 334 335 336 337 336 336 334 333 333 331
322 324 327 328 329 329 332 332 332 331 331 330 329 329 328 326 325 324 325 324 326 325 325 326 325 326 326 326 325 325 322 324 325 326 326 325 325 324 325 326 326 326 326 324 323 322 321 320 317 316 316 315 314 314 314 314 315 315 315 316 316 314 313 314 314 313 312 313 313 314 319 323 327 328 329 331 334 336 337 337 336 335 333 333 331
324 325 325 327 329 329 330 332 332 332 332 330 329 328 328 327 326 324 325 323 325 326 325 325 326 325 326 326 326 326 323 323 324 325 325 325 324 323 323 322 323 324 325 323 322 322 321 319 318 317 317 316 315 315 313 314 314 315 315 315 315 315 315 314 314 312 312 313 313 313 316 319 324 327 328 328 331 334 335 336 337 336 334 333 332
325 324 325 327 328 328 329 331 332 331 332 331 330 329 328 328 327 326 324 324 325 325 325 326 325 325 326 326 326 326 323 322 323 324 324 324 323 321 321 321 321 322 323 324 324 322 321 320 318 317 316 316 316 316 315 314 315 315 315 315 315 314 315 315 314 314 313 313 313 313 314 317 320 324 328 329 329 330 333 334 336 335 335 333 332
324 325 326 327 327 328 329 331 332 331 330 331 330 329 328 328 328 327 325 324 324 325 325 325 324 325 325 325 327 327 323 321 322 322 323 322 321 319 319 319 320 321 321 321 321 320 320 319 317 316 316 316 316 315 314 315 315 316 316 316 315 315 314 315 315 315 314 313 313 313 313 314 317 320 323 328 328 328 329 332 333 334 336 335 334
325 326 326 325 326 327 329 330 332 330 330 331 331 331 330 329 328 327 327 325 324 324 324 325 325 324 324 325 326 326 324 322 321 320 319 320 319 318 317 317 318 320 319 319 319 318 317 317 317 315 315 314 314 314 314 314 315 315 315 316 315 315 316 315 316 316 315 315 313 313 313 313 313 316 319 321 326 329 329 329 330 332 335 335 335
326 325 325 325 327 328 329 330 331 331 329 331 331 330 330 329 328 328 327 326 325 324 324 324 324 324 323 323 325 325 324 323 322 321 320 318 318 318 318 317 317 317 318 318 318 316 316 315 315 314 314 314 314 314 313 313 313 314 315 315 315 315 315 316 316 316 316 316 314 313 314 313 312 313 314 317 320 324 328 328 328 328 331 335 335
326 324 325 326 326 328 328 329 329 331 329 330 329 330 330 329 328 328 327 327 326 325 324 324 324 324 323 322 323 323 323 323 322 321 320 319 318 317 317 318 317 316 316 316 317 316 315 315 314 313 313 312 312 313 313 314 313 313 314 314 314 315 314 315 316 316 316 316 314 313 313 314 313 313 313 313 314 318 323 328 328 327 328 332 335
327 326 326 326 326 327 327 328 328 329 330 329 330 330 329 329 329 327 328 327 326 326 325 325 325 325 324 323 322 322 322 322 321 321 320 319 319 318 318 317 316 316 316 315 315 316 315 314 314 314 313 312 311 311 311 312 312 313 313 313 314 314 314 315 315 315 316 315 315 314 313 313 314 313 312 313 313 314 317 322 327 328 328 329 333
328 327 326 326 326 327 326 327 327 328 330 330 329 329 329 329 329 328 328 327 327 327 326 326 325 325 325 324 323 322 321 322 322 321 320 319 319 318 318 317 316 316 316 315 315 316 315 315 314 313 313 314 311 310 310 310 311 312 312 312 313 314 314 315 315 315 316 315 315 315 314 313 313 312 313 313 313 313 314 316 320 323 325 328 332
327 327 327 326 326 327 327 326 327 327 329 329 329 329 329 329 328 328 326 327 327 327 327 327 326 326 325 325 325 323 322 321 321 321 320 320 319 318 318 317 317 316 316 316 316 316 315 315 314 313 312 312 312 311 310 310 310 311 311 311 313 313 314 314 315 312 314 315 315 315 315 315 314 313 313 313 314 314 314 315 316 317 318 321 328
327 327 327 327 327 327 326 325 326 327 327 328 328 329 328 328 328 327 326 326 327 327 327 327 327 327 326 326 325 324 322 323 322 321 320 320 318 318 317 317 316 316 316 316 315 315 315 315 315 315 312 312 313 312 311 309 309 309 310 311 312 313 314 314 314 314 314 315 316 316 316 315 315 314 313 313 314 314 314 314 313 314 316 318 324
325 327 326 326 326 326 326 326 326 327 327 327 327 327 326 326 325 325 325 326 327 326 326 327 328 327 327 327 325 325 324 323 323 322 321 320 319 318 317 316 316 316 316 315 316 315 315 315 315 315 314 312 311 311 310 308 307 306 307 309 311 312 313 314 314 315 315 315 315 315 315 316 315 315 314 314 313 314 314 314 313 314 316 318 320
324 325 325 326 326 326 325 325 326 326 326 325 325 326 325 325 325 325 325 327 326 327 326 326 327 328 327 327 326 325 325 324 323 324 323 320 320 320 318 316 316 316 316 316 317 316 316 316 316 314 314 313 313 312 311 308 307 307 307 307 308 310 311 312 314 315 315 316 316 316 316 315 315 315 315 314 313 313 314 314 314 314 315 316 318
321 323 324 325 326 326 325 326 326 326 326 326 326 326 327 327 326 326 327 327 326 325 326 327 327 327 327 327 326 326 325 325 323 324 323 323 322 321 320 319 317 316 317 317 316 315 316 316 316 314 314 314 314 314 311 308 305 306 305 302 304 308 310 312 313 314 315 316 316 316 316 315 315 315 315 314 313 312 313 314 314 314 314 315 316
321 321 324 325 325 325 325 325 326 326 326 326 326 325 327 327 327 326 327 326 328 328 327 327 326 326 327 327 326 326 325 325 325 324 324 324 323 322 321 321 319 317 315 316 316 315 316 316 316 315 314 313 314 313 311 311 310 305 303 303 302 302 305 307 312 313 315 315 316 316 316 316 316 316 315 314 314 313 313 313 314 314 314 314 315
317 319 321 323 325 324 325 325 325 326 326 326 324 327 327 327 327 326 323 326 324 323 325 324 324 325 326 326 326 326 326 325 325 325 324 325 325 324 323 322 322 320 318 317 316 316 316 316 316 315 315 313 312 313 312 310 311 306 301 303 299 299 301 303 307 312 314 315 315 316 316 316 316 316 314 314 314 314 314 313 313 313 314 314 314
316 317 319 321 324 324 325 325 325 325 326 325 325 325 325 322 324 322 319 319 318 318 319 323 324 324 325 325 326 326 326 325 325 325 324 324 325 325 324 324 324 323 322 320 318 317 317 317 317 316 315 315 313 313 310 311 310 312 308 302 300 299 302 299 301 307 311 313 314 316 315 316 316 316 314 314 314 314 314 313 313 313 313 314 313
313 317 318 320 322 324 325 325 326 326 325 325 325 325 324 324 323 322 321 321 321 320 320 321 323 323 324 326 326 326 326 325 325 325 325 323 324 325 325 325 324 324 324 323 321 320 318 317 317 317 316 316 315 313 312 309 311 311 312 312 307 302 299 298 302 300 297 309 313 314 316 316 316 315 315 314 313 313 313 314 313 313 313 313 313
311 314 316 318 320 322 324 325 325 325 326 325 325 324 324 324 323 323 323 322 321 322 324 323 323 324 324 324 325 325 326 325 325 325 325 324 324 324 325 325 325 324 323 323 322 321 320 319 318 317 317 316 315 314 313 312 307 310 311 312 311 307 299 301 300 299 300 297 303 310 312 314 315 315 315 315 314 313 313 313 313 313 313 313 313
311 311 313 316 318 319 321 323 325 324 325 326 325 325 324 324 323 323 323 323 322 322 323 323 323 322 322 323 324 324 325 325 325 325 325 325 323 324 325 325 325 325 323 323 323 323 322 321 319 319 318 317 316 315 314 313 310 311 310 310 310 310 310 306 302 305 300 300 303 299 305 309 311 314 315 315 315 314 314 313 312 313 313 313 312
310 310 312 314 317 318 318 320 322 323 324 325 324 325 324 324 324 323 322 322 323 323 321 320 321 321 321 322 322 323 324 324 325 325 325 325 322 323 324 324 324 324 322 323 323 323 322 322 320 319 318 318 318 317 316 315 313 312 308 308 309 310 310 309 309 305 304 302 303 304 304 300 304 310 313 314 315 315 314 315 313 312 312 312 312
308 311 311 312 314 316 317 317 319 321 323 324 324 324 324 323 323 323 322 322 322 322 320 320 319 319 320 321 321 321 322 323 324 324 324 324 324 323 323 324 324 324 322 323 323 323 323 322 322 321 319 318 319 318 316 316 316 315 313 311 308 308 308 308 308 307 306 305 303 303 305 304 303 307 308 312 313 314 315 315 314 312 312 312 312
304 306 310 310 311 312 315 316 318 320 321 322 323 323 324 323 323 323 322 322 322 322 320 320 318 317 319 320 320 321 321 322 323 323 324 324 324 323 322 323 323 323 321 322 322 322 322 322 322 322 320 319 318 318 316 315 316 315 314 313 311 310 309 308 308 308 307 304 304 304 306 307 306 306 309 308 311 313 314 314 314 313 312 311 311
Wind_Speed
4 6 5 9 12 13 14 15 15 15 15 15 15 14 13 13 13 12 12 12 11 11 11 11 13 13 12 12 11 11 12 11 11 11 13 14 15 14 12 13 14 14 12 14 15 13 13 13 14 13 14 12 13 14 14 14 14 14 13 13 13 13 13 13 13 13 12 14 13 12 12 12 12 12 12 12 11 10 8 10 9 7 7 11 16
8 4 5 6 12 13 13 14 15 15 15 15 14 14 13 13 12 12 10 11 10 10 12 13 12 13 12 12 12 12 12 12 12 11 12 13 14 14 13 15 12 13 13 13 12 13 12 12 12 12 12 12 12 13 14 14 14 13 12 12 11 10 10 11 12 12 12 11 13 13 12 12 12 12 12 11 10 10 8 11 10 5 5 14 15
6 5 4 6 11 12 13 14 14 14 15 15 14 13 13 13 12 12 11 10 9 10 12 12 13 13 12 11 12 11 11 11 11 11 15 15 15 14 12 12 13 14 14 14 13 12 12 12 12 12 12 12 12 14 13 12 11 10 11 10 9 10 11 11 10 10 9 9 11 10 9 12 12 11 11 10 10 10 9 11 11 11 8 16 13
9 5 4 7 9 10 12 14 14 14 14 14 13 13 12 13 12 11 12 11 10 10 11 11 13 12 11 10 10 12 11 11 12 13 15 15 14 13 12 12 13 13 13 13 12 11 11 11 11 11 11 11 12 12 11 10 10 10 9 10 11 10 10 10 10 9 8 6 8 6 4 4 4 11 10 9 10 10 10 10 11 12 14 14 15
8 5 5 5 5 8 11 13 13 13 14 14 13 13 12 12 12 11 11 12 11 11 10 10 9 10 10 10 10 12 11 11 11 12 12 12 13 13 14 14 13 13 12 13 13 12 12 11 11 11 11 11 11 11 9 9 9 9 9 9 9 8 7 6 5 6 4 5 7 6 3 4 4 8 10 10 9 8 10 10 11 13 13 14 14
6 5 5 5 5 6 10 11 13 13 13 14 13 13 13 12 11 10 10 10 11 11 9 9 10 11 12 11 11 12 12 12 11 11 12 13 13 13 13 12 13 13 13 13 11 11 11 11 12 11 9 10 10 8 8 9 8 9 9 9 9 9 9 8 7 8 7 7 6 3 3 3 3 2 10 9 10 9 9 11 12 13 14 15 14
8 5 6 5 5 6 9 11 12 14 14 14 13 13 14 12 11 10 10 11 11 11 10 9 11 12 13 10 11 12 12 12 12 12 13 13 12 13 13 13 12 13 12 12 12 11 10 10 10 10 9 8 8 8 8 8 8 9 9 10 12 13 13 11 9 9 8 5 3 3 3 3 3 2 6 7 9 11 10 11 12 12 14 13 13
5 5 6 5 5 8 10 10 12 13 13 13 12 13 14 13 11 11 10 9 11 12 10 11 12 10 9 12 12 12 12 12 12 12 11 11 12 13 13 13 12 12 11 12 11 11 11 11 11 10 8 7 7 7 7 7 8 9 10 11 13 13 13 11 8 8 8 4 3 3 4 3 3 2 7 5 8 11 10 11 12 12 14 13 10
5 4 5 5 6 11 11 11 13 13 14 13 13 13 14 12 12 11 10 10 9 10 11 10 12 12 11 10 12 13 12 12 12 12 12 11 13 14 13 13 12 12 10 10 10 11 10 10 10 9 8 7 7 7 7 7 8 9 10 11 12 13 13 11 8 6 6 4 3 3 3 3 3 2 6 6 8 10 11 9 10 12 12 11 11
5 4 3 3 6 10 11 11 14 13 12 13 12 13 14 12 11 11 11 10 9 10 12 13 14 14 12 12 13 12 12 13 12 12 12 11 10 11 11 11 11 11 12 11 10 10 10 9 9 9 8 6 6 6 6 6 7 8 9 10 11 12 11 10 8 5 5 4 3 2 1 4 2 2 4 7 9 10 8 5 6 6 6 11 11
6 5 4 3 5 9 11 12 13 13 12 12 13 12 12 11 11 12 11 11 10 10 12 13 13 13 11 9 10 12 12 11 12 12 12 12 11 11 11 11 11 11 11 11 9 10 10 9 8 8 7 6 5 5 5 6 7 7 8 9 10 11 12 10 7 3 3 4 3 3 4 6 2 0 5 7 10 11 7 7 10 11 11 10 10
8 6 4 3 10 9 9 11 13 13 12 12 12 11 11 12 11 12 11 10 11 11 13 12 12 12 12 11 12 11 11 11 12 11 11 12 12 11 11 11 10 11 11 10 10 10 10 9 8 7 7 6 5 4 4 4 6 6 7 9 10 11 11 9 4 3 3 3 3 3 3 3 3 2 5 7 10 11 9 10 11 11 10 10 10
8 6 6 4 4 7 7 8 10 12 12 12 11 11 10 11 10 11 12 11 11 11 13 13 12 11 11 10 9 11 12 10 10 12 11 10 10 11 11 11 11 11 11 11 11 10 9 8 8 8 7 6 5 4 3 3 4 5 7 9 10 10 9 9 4 3 3 3 3 3 3 3 2 4 4 6 8 11 10 10 11 10 10 10 9
8 7 6 6 5 8 8 7 7 8 10 9 10 10 11 11 11 11 12 12 12 11 11 12 12 11 11 10 11 9 10 10 10 11 10 11 11 11 11 11 10 10 10 10 10 10 10 9 8 8 7 6 5 4 2 1 2 4 6 8 8 8 9 6 4 2 3 2 1 2 3 3 1 4 4 5 7 10 11 10 11 10 10 10 10
10 9 7 6 6 5 8 8 8 7 6 8 8 10 11 11 10 11 11 12 13 12 11 11 12 11 10 11 12 11 10 10 10 10 9 10 10 10 10 10 10 10 9 10 9 9 9 9 8 7 7 6 5 4 2 1 1 3 5 6 7 7 7 3 3 2 1 2 1 2 3 3 1 5 4 5 7 9 11 11 11 10 10 10 9
13 10 8 6 6 6 5 7 8 8 6 7 8 8 8 9 10 9 10 11 12 13 11 12 12 12 11 12 11 11 11 11 10 7 6 7 10 9 9 9 9 9 8 8 9 8 8 8 8 7 7 5 5 4 3 2 1 2 4 4 4 4 5 4 2 2 1 1 1 1 2 2 6 2 3 5 7 9 9 10 11 9 9 9 9
10 10 10 8 7 6 6 5 6 9 8 8 8 8 6 5 8 8 8 9 11 12 11 11 12 12 12 12 12 11 10 10 8 8 7 8 9 8 8 8 9 9 9 8 8 8 9 8 7 7 6 6 5 4 4 3 3 2 3 3 3 3 3 5 3 1 0 1 1 1 2 2 5 1 3 5 6 9 9 9 10 9 9 9 9
11 10 10 9 8 7 6 6 6 6 6 7 8 9 7 6 6 6 8 7 9 9 9 9 8 9 10 9 8 9 9 9 8 8 7 5 6 6 5 8 9 9 8 8 9 10 9 8 7 7 6 6 5 4 4 4 3 3 2 3 4 4 5 6 2 1 0 1 1 0 1 4 4 1 3 4 6 8 9 9 10 9 8 8 9
9 10 9 9 9 7 7 6 6 6 7 6 5 7 9 7 7 6 7 10 9 8 7 7 8 6 6 7 7 8 8 7 8 7 6 8 8 7 5 4 8 8 8 9 9 9 8 7 7 7 7 5 5 5 5 5 4 3 2 3 4 5 5 4 1 0 0 1 0 1 2 4 4 3 4 5 7 9 9 10 9 8 8 8 8
8 9 9 9 9 8 7 6 6 6 6 6 6 6 8 9 7 7 8 10 11 10 9 7 9 8 7 8 7 6 5 5 7 5 6 8 8 6 7 6 8 8 7 6 8 8 8 8 8 7 7 6 6 5 6 6 4 4 4 5 4 4 3 3 1 1 1 2 1 1 3 4 5 4 4 8 8 9 9 9 9 7 7 8 8
5 8 9 8 9 9 9 7 6 7 6 7 6 6 7 9 7 8 9 11 11 11 9 10 8 7 7 8 8 6 4 3 3 2 5 3 4 5 6 7 8 8 8 7 7 7 8 8 8 8 7 7 5 5 5 6 6 6 6 5 3 3 2 1 1 2 2 3 2 1 3 3 5 5 5 6 8 9 10 10 9 8 7 7 8
7 7 7 8 9 8 9 8 7 8 7 6 5 5 5 8 6 5 5 7 9 9 8 7 6 4 5 5 5 5 4 3 3 4 3 4 3 4 3 6 7 7 7 9 8 8 8 9 9 8 8 7 3 2 4 6 8 8 7 6 4 3 3 1 2 4 3 5 3 3 4 3 5 5 6 8 9 10 10 11 10 9 8 8 8
8 7 7 9 9 8 9 9 8 8 7 7 6 6 6 6 6 6 6 7 7 8 7 7 7 6 6 5 4 4 4 4 4 5 5 5 5 5 4 5 8 8 7 8 8 8 9 9 9 9 8 5 1 2 3 3 4 6 5 4 3 5 3 2 3 4 5 4 3 5 4 3 4 5 5 6 9 9 10 10 10 9 9 8 7
9 9 8 7 8 8 10 9 10 9 8 7 6 7 6 6 6 6 6 6 7 7 6 7 7 8 7 6 5 5 5 5 6 9 7 4 3 4 5 6 8 8 8 6 6 6 7 8 7 7 6 1 1 2 3 4 4 4 3 3 3 5 5 4 3 5 6 4 4 7 5 4 4 5 6 7 10 10 11 11 12 10 9 8 8
8 6 6 8 9 9 9 9 9 9 9 7 7 7 6 6 6 6 6 6 7 7 7 8 8 9 8 7 6 5 5 5 5 5 5 5 4 4 4 4 4 5 6 4 3 3 3 3 3 2 2 3 3 4 4 5 5 5 5 4 4 4 5 5 4 5 6 5 4 7 6 6 7 7 7 9 10 11 12 12 12 11 9 9 9
3 6 8 8 9 9 9 9 9 9 9 8 8 7 7 7 7 7 6 6 7 7 7 7 6 7 7 7 7 6 6 6 6 7 6 7 7 6 6 5 5 6 5 5 4 4 4 4 3 4 4 3 4 5 5 5 6 5 5 5 5 5 6 6 4 6 6 6 5 9 8 6 7 8 8 10 10 12 13 13 13 12 10 10 10
6 7 6 7 8 8 9 9 9 9 10 9 8 7 7 7 6 7 7 6 6 7 7 7 8 8 7 8 7 7 7 6 7 8 7 6 7 7 7 7 6 6 6 6 5 5 5 5 4 5 4 5 5 5 5 5 6 6 6 6 5 6 6 7 6 6 6 6 6 10 8 8 9 9 9 11 12 12 14 14 14 13 12 11 11
6 8 7 7 8 10 10 10 10 9 9 8 8 8 7 7 8 7 8 8 8 7 7 7 7 8 9 8 8 7 7 7 8 8 8 8 8 7 7 7 7 7 6 6 7 6 5 5 5 5 5 5 6 6 6 6 6 6 6 7 7 7 7 7 7 6 6 6 5 8 10 9 9 10 10 10 13 13 14 16 16 15 14 13 12
9 10 9 8 9 9 10 11 10 10 9 9 9 8 7 8 7 7 8 7 7 7 7 6 7 7 7 8 8 8 7 7 8 8 7 8 8 7 7 7 7 7 6 6 7 7 6 6 6 6 5 6 6 7 6 6 6 6 7 7 7 6 6 6 6 6 5 6 6 7 10 10 10 10 11 12 13 14 15 17 17 17 16 15 13
13 10 9 10 8 9 11 12 12 11 10 9 8 8 8 8 8 8 8 7 8 7 6 7 7 7 7 7 8 7 8 8 8 8 9 9 8 8 8 7 7 6 7 7 7 7 7 6 6 6 6 6 6 7 6 6 6 6 6 7 7 7 6 6 7 6 6 6 6 6 11 11 11 10 11 12 13 13 15 15 17 17 16 15 14
9 10 11 10 10 9 11 11 11 10 9 10 9 9 8 9 9 8 7 8 8 7 7 7 7 7 8 8 7 8 7 7 7 8 8 8 8 8 8 7 7 7 7 8 7 8 7 7 7 7 7 7 7 6 6 6 7 7 6 7 7 6 6 6 6 5 4 6 6 6 7 12 12 12 11 13 13 14 14 15 15 16 18 17 16
11 13 12 10 10 12 12 12 12 11 11 11 10 10 10 10 9 8 8 8 8 8 8 8 8 8 8 8 8 8 7 7 8 7 8 8 8 8 7 7 8 6 7 7 7 7 7 7 7 7 7 7 7 6 6 6 7 7 6 7 6 6 6 6 6 6 5 5 6 6 6 7 12 13 12 13 14 14 14 15 17 16 17 19 18
10 12 11 8 12 12 12 13 12 11 12 13 11 10 9 9 9 9 8 8 8 8 9 9 8 8 8 9 9 9 8 8 7 8 7 7 7 7 7 8 7 6 6 7 7 6 6 6 7 6 6 6 6 7 5 6 7 7 7 7 6 6 6 6 6 6 7 6 6 6 6 6 6 11 13 12 13 13 14 15 16 17 17 18 20
10 8 7 12 11 9 9 9 11 12 14 12 11 10 10 9 9 8 8 9 8 9 9 8 9 8 8 9 9 9 9 8 7 7 7 7 7 7 8 7 5 5 6 6 7 6 6 6 6 6 7 7 8 7 6 7 7 6 7 6 6 7 6 7 7 7 7 7 6 6 7 6 7 6 7 12 13 13 14 14 15 17 17 19 19
8 7 12 15 12 11 9 9 11 13 12 12 12 12 10 10 9 9 8 9 8 9 9 8 9 9 8 8 9 9 9 9 8 8 8 8 8 8 7 6 5 5 6 6 6 6 6 7 6 7 6 7 6 6 7 8 7 8 8 6 7 6 6 7 7 7 8 8 7 6 7 7 7 7 7 7 10 14 13 13 15 16 17 18 19
13 13 13 10 12 12 11 11 11 13 13 14 12 12 11 10 9 9 8 8 8 8 8 8 8 8 9 9 9 10 9 9 9 8 8 8 8 8 8 6 5 6 6 6 6 7 6 6 6 6 7 7 6 8 6 8 7 8 6 6 7 7 7 7 8 7 7 6 7 7 7 7 8 7 8 7 7 9 14 14 14 14 15 18 20
15 13 13 11 12 13 12 13 14 15 14 14 12 10 10 10 10 9 9 8 9 9 8 7 7 8 7 8 9 9 10 10 9 8 8 8 8 8 7 6 6 6 6 6 7 7 7 7 6 6 6 7 6 8 7 7 7 7 6 7 7 7 8 8 8 8 7 8 8 8 7 8 8 9 8 8 8 7 11 15 15 15 14 15 18
13 15 14 14 15 13 12 13 13 13 13 13 12 11 10 10 8 8 8 9 9 9 8 7 8 8 7 9 8 8 8 9 10 9 9 9 8 8 7 7 7 7 7 7 8 7 7 7 8 6 7 7 8 7 8 6 5 6 6 7 8 7 8 8 8 7 7 8 8 9 9 8 8 8 8 8 8 8 8 12 16 16 15 15 16
11 14 13 13 11 11 11 12 12 11 11 10 10 9 8 7 6 7 8 9 8 8 7 8 9 8 9 9 8 8 8 9 9 10 10 9 8 8 7 7 7 7 7 8 8 8 7 7 9 8 6 7 8 8 8 6 6 5 6 8 8 9 7 7 7 7 8 9 9 10 8 9 8 8 8 8 8 8 9 8 8 8 10 15 15
12 11 12 11 12 10 10 10 11 11 9 8 7 8 7 8 9 6 8 9 9 9 9 9 8 9 10 9 9 9 8 9 9 9 10 9 9 8 8 7 7 7 8 9 10 9 10 9 10 9 8 7 7 8 6 6 5 6 8 9 9 9 9 8 8 9 9 8 9 9 10 9 8 9 9 9 8 9 9 9 8 8 8 11 16
11 11 11 13 13 14 12 13 12 10 9 9 9 10 10 9 8 11 13 11 11 10 9 10 10 10 10 9 9 9 9 9 9 9 9 9 8 7 7 7 7 8 9 11 10 9 9 9 9 8 10 10 9 8 7 4 5 8 8 10 9 7 9 9 11 10 10 10 9 10 9 9 10 9 9 8 8 9 9 9 9 8 8 7 10
11 10 13 15 15 13 13 15 10 10 12 12 11 10 11 12 12 13 12 11 10 11 12 11 12 9 8 9 9 9 10 10 10 10 9 9 9 8 8 9 7 8 9 8 7 8 9 9 7 7 8 11 10 7 6 6 6 10 7 5 5 6 11 11 12 12 12 11 11 11 10 11 12 10 8 8 8 9 9 9 9 9 8 8 8
14 14 16 13 12 12 13 12 11 12 12 12 11 12 11 11 11 10 10 9 7 8 8 7 6 8 9 9 10 10 11 11 11 11 11 11 11 10 10 8 8 7 7 8 8 9 9 11 10 10 7 6 8 4 7 11 9 3 3 4 7 5 4 5 9 13 13 13 10 11 12 12 13 11 9 8 9 9 9 9 10 9 9 9 8
10 10 10 12 11 12 12 12 12 12 12 13 13 13 12 11 8 6 4 6 5 3 5 4 6 7 10 9 10 11 11 11 12 11 11 11 11 11 9 9 10 9 9 9 9 11 10 10 10 11 8 9 7 9 7 8 8 6 3 8 4 0 10 7 9 9 11 15 12 13 11 12 12 10 8 10 10 9 9 9 10 10 10 10 9
12 11 11 12 10 14 14 15 14 14 13 13 14 11 9 6 6 4 1 1 2 3 4 8 9 9 9 10 13 10 11 12 11 12 11 12 10 10 10 10 10 10 9 10 11 12 11 11 11 10 11 12 11 7 5 8 10 10 7 2 0 1 8 4 0 7 6 9 13 14 13 13 12 11 10 11 9 9 9 10 10 10 11 10 10
11 12 10 12 13 13 14 13 12 11 11 12 13 11 11 11 9 9 9 9 9 8 11 13 11 12 14 10 8 10 11 11 11 11 11 10 11 11 11 11 11 10 10 11 11 10 11 12 12 11 11 12 11 7 8 6 11 12 13 11 6 6 2 2 1 7 4 7 7 8 13 13 12 11 10 11 10 10 9 10 10 11 11 11 10
13 10 8 10 13 13 13 14 13 12 12 11 12 11 11 10 12 13 13 13 13 11 10 8 9 9 7 8 9 8 10 12 11 11 11 11 11 11 11 11 11 10 10 10 11 12 11 10 8 10 11 8 8 12 13 7 3 9 11 13 14 8 2 1 5 3 9 5 4 8 9 9 11 12 13 11 11 10 9 10 11 11 11 11 11
12 9 10 10 12 13 11 12 11 11 11 11 12 13 13 12 12 12 12 13 13 14 10 9 7 6 8 10 8 9 9 11 11 11 12 11 11 11 12 12 12 12 10 11 12 11 9 9 9 11 9 9 10 12 12 7 9 9 7 11 12 12 10 7 5 7 7 10 14 4 5 7 7 12 12 11 11 12 11 10 11 11 10 11 10
9 9 11 12 12 12 11 10 11 11 10 12 12 13 13 13 14 13 13 12 12 11 7 6 7 7 9 8 8 9 9 10 11 11 11 11 10 11 11 12 12 12 10 11 11 11 12 11 10 10 11 11 10 11 10 11 9 11 4 8 9 11 10 10 10 6 9 8 14 13 15 2 4 11 10 10 11 10 11 12 11 12 11 10 10
9 8 9 8 9 10 11 12 12 11 10 11 12 13 14 12 12 12 13 12 9 8 6 8 7 7 10 10 8 8 9 9 10 11 11 11 11 11 11 13 13 12 10 12 11 11 12 12 12 11 11 13 11 11 13 12 10 9 9 7 7 8 8 9 10 10 9 11 15 13 12 12 11 9 6 10 10 10 10 10 10 10 10 9 9
7 6 7 8 8 9 10 12 14 11 10 12 12 14 13 12 12 12 14 14 12 11 10 10 7 7 10 10 10 10 9 10 9 10 11 11 12 12 12 12 11 11 11 11 12 11 11 12 12 12 13 14 12 12 12 12 11 10 10 10 11 11 11 11 11 10 10 9 10 13 14 15 14 14 12 5 8 10 10 10 11 10 10 10 10
Wind_Direction
199 157 157 151 146 147 143 142 137 138 130 126 123 121 117 113 113 113 111 115 112 109 109 113 116 112 105 105 104 102 98 94 95 99 98 99 99 96 95 100 109 102 101 99 98 102 103 100 96 94 97 97 95 93 91 93 88 85 77 74 71 69 72 69 52 45 49 59 65 74 72 75 75 76 74 70 68 62 64 70 51 64 79 85 91
167 164 149 148 151 147 145 139 139 136 131 127 125 122 118 115 115 115 112 106 104 113 111 110 107 102 105 105 105 106 106 104 106 109 111 104 103 101 102 107 97 96 97 96 94 88 88 91 95 95 89 89 96 98 101 93 86 81 81 80 72 60 50 34 31 22 20 45 61 54 62 68 70 70 72 73 71 68 69 78 78 72 87 94 94
139 142 152 150 150 151 146 143 140 138 132 128 125 122 120 120 119 118 113 111 119 119 113 115 109 105 106 110 117 115 111 112 111 113 111 109 106 103 102 102 103 101 97 96 94 95 96 91 89 93 99 102 103 108 97 89 87 80 74 70 62 48 37 29 14 3 4 10 55 56 51 66 73 73 75 76 75 70 67 82 88 91 99 95 88
136 148 143 146 144 146 149 145 143 137 134 127 124 122 124 124 125 127 124 121 116 113 118 120 113 110 110 116 121 115 113 113 116 115 109 109 106 105 107 104 108 102 101 96 100 99 100 101 101 99 97 103 111 104 95 84 77 74 66 52 43 32 21 11 360 347 354 5 34 52 48 22 44 79 78 80 80 78 81 90 96 99 97 97 94
134 140 136 133 136 142 150 145 145 139 134 133 130 127 127 126 129 128 121 123 124 123 121 115 116 117 121 124 125 118 119 116 119 118 115 112 109 109 110 106 103 99 104 109 107 105 99 94 99 103 106 111 114 107 94 85 72 64 58 49 38 28 12 4 349 4 11 47 46 31 21 41 13 83 88 86 79 73 84 103 106 102 100 96 91
140 135 131 130 131 142 142 147 143 139 139 138 136 134 130 128 129 126 123 127 131 128 123 123 130 133 126 136 131 121 122 122 119 118 116 110 112 112 110 113 114 117 118 111 104 105 111 113 108 105 106 114 114 100 77 63 61 55 45 38 30 23 23 28 54 67 67 67 54 40 22 40 54 31 101 94 93 86 98 107 108 108 103 95 91
137 136 133 132 129 139 142 148 146 145 145 142 138 136 130 131 131 129 134 139 134 137 136 135 123 127 130 135 131 129 126 126 126 124 118 120 122 119 116 116 113 112 108 108 110 107 106 105 110 107 102 102 97 81 68 59 53 45 38 30 25 24 26 37 65 71 71 67 56 45 38 28 43 45 69 100 108 111 109 112 108 105 98 92 91
126 136 137 138 135 140 141 148 146 145 147 143 142 140 134 138 139 142 144 143 143 143 139 132 128 130 132 135 135 132 133 134 130 123 122 125 116 117 117 116 115 113 117 115 116 126 126 115 106 108 106 102 96 78 63 56 45 39 33 27 26 25 27 32 51 73 77 72 71 52 32 12 19 26 97 72 109 105 113 113 109 103 96 93 87
134 137 135 141 141 143 144 151 150 151 150 147 149 144 138 143 149 149 150 151 151 146 142 138 134 139 141 139 137 139 139 134 133 131 125 126 126 128 124 121 121 121 123 121 120 114 104 108 110 104 106 104 91 75 63 50 44 37 32 30 27 26 26 30 35 55 70 76 67 54 32 13 9 23 91 103 91 104 110 103 103 101 101 101 102
136 128 127 141 146 147 146 148 151 153 155 150 149 148 143 153 153 152 154 153 155 152 145 141 142 143 146 150 143 146 143 143 139 133 131 132 129 125 126 127 125 125 124 123 122 121 126 120 114 114 102 94 84 73 59 48 41 34 30 30 27 27 25 29 36 49 82 74 66 57 53 42 2 11 108 116 112 112 106 85 94 103 110 109 108
140 140 132 136 150 152 153 151 151 157 157 147 148 149 151 152 153 155 163 158 158 153 146 150 150 147 149 153 151 143 146 142 141 141 138 137 139 137 134 131 131 129 125 124 133 129 124 122 127 122 110 99 87 75 57 43 36 31 29 28 25 26 25 26 37 28 66 78 70 41 20 22 5 299 118 121 118 118 118 127 120 114 113 113 110
144 142 138 143 153 150 151 150 155 160 154 153 152 154 154 156 158 162 169 166 160 159 155 156 153 148 148 151 155 153 149 150 148 144 142 142 142 138 136 140 140 137 135 133 135 133 136 134 124 126 122 116 103 80 62 45 34 28 26 28 25 25 23 27 40 43 59 62 62 45 24 1 353 99 127 134 128 130 139 138 131 123 119 115 113
144 144 144 148 146 149 149 148 152 162 161 159 158 157 160 163 167 171 177 171 165 161 158 156 154 151 150 155 161 157 154 157 154 145 142 142 144 142 146 147 144 147 145 142 138 135 134 136 135 131 133 130 124 111 80 45 30 22 24 23 20 23 21 31 35 54 63 59 44 22 25 356 322 112 136 151 148 145 142 140 130 125 124 121 119
145 148 150 150 150 150 154 156 152 160 172 165 159 161 164 169 168 174 177 173 171 169 167 161 158 159 159 163 162 168 158 154 150 148 157 155 151 152 152 147 147 149 147 144 142 144 144 144 146 141 140 145 143 138 139 68 21 23 20 22 13 14 23 29 22 33 91 75 48 33 10 350 289 109 138 163 163 156 150 146 134 132 131 128 125
148 154 153 152 153 153 159 162 162 165 160 155 155 164 172 175 175 179 172 176 175 175 170 168 163 164 166 163 163 166 161 158 158 159 158 149 153 155 155 155 154 154 150 150 151 151 149 151 153 154 151 156 160 163 176 200 356 2 12 11 7 7 22 45 19 5 20 65 17 9 3 332 355 116 143 164 163 164 156 149 139 138 138 134 131
150 152 153 154 155 159 156 166 167 169 163 158 163 169 178 183 176 185 179 174 180 176 175 170 165 166 165 164 164 164 164 166 167 148 135 150 162 161 161 160 154 151 153 155 156 157 159 163 160 162 166 167 173 183 201 224 285 322 351 354 358 8 12 62 46 14 331 93 19 6 337 322 351 134 144 167 168 165 161 154 139 143 141 140 137
148 150 154 160 161 162 160 165 174 175 171 159 171 172 184 204 180 186 188 184 176 177 173 170 170 168 168 167 167 165 167 171 147 131 140 168 171 161 167 162 164 162 159 162 163 167 171 167 168 169 177 180 189 201 215 231 257 302 313 328 335 4 15 51 51 11 357 298 111 353 323 314 334 24 167 169 170 165 169 159 144 149 147 146 142
151 154 160 162 164 168 167 165 171 170 171 162 169 181 192 171 169 181 184 165 165 172 176 172 179 169 169 172 166 160 166 165 152 152 161 157 113 114 140 173 172 167 170 172 180 177 177 174 173 181 183 185 195 210 233 242 258 270 298 309 331 352 9 56 34 351 300 290 350 295 323 309 326 299 185 186 174 169 178 166 156 153 154 152 147
158 161 162 162 170 170 174 170 171 171 171 164 163 182 182 162 153 153 168 158 162 168 173 175 170 169 166 158 152 151 158 160 159 166 160 142 140 139 154 171 172 174 183 185 192 186 176 179 182 188 190 191 202 216 233 251 256 269 290 300 319 347 10 51 19 59 258 285 264 310 293 321 302 268 238 195 177 179 179 173 173 166 163 161 153
169 166 167 175 169 173 177 177 175 176 174 171 171 170 175 161 157 151 155 162 162 166 173 172 163 168 162 142 143 143 145 158 168 161 153 153 152 153 160 165 176 183 188 194 199 189 189 194 195 197 195 202 215 229 245 257 264 273 275 287 327 346 353 80 308 170 235 247 225 267 288 321 287 261 254 189 181 184 190 179 178 172 172 169 160
180 178 174 177 175 175 179 177 184 181 179 176 175 173 177 165 163 158 157 166 166 168 169 169 161 159 153 149 148 150 140 136 140 126 126 118 150 165 172 172 179 180 183 192 199 200 204 203 204 207 206 215 225 250 292 293 299 295 286 285 313 314 308 27 264 189 229 241 225 240 274 312 288 259 257 193 191 193 196 183 180 176 178 179 169
182 183 192 180 177 182 181 184 184 186 180 178 179 179 181 171 166 168 159 164 165 156 159 160 157 153 149 150 158 159 149 148 145 150 146 145 153 187 214 196 178 175 186 195 198 197 207 211 216 216 216 226 230 314 304 297 292 287 298 309 302 286 281 309 246 202 228 240 226 237 229 269 274 255 255 225 208 211 201 193 187 186 190 187 182
189 190 192 188 184 181 184 186 188 189 184 183 181 184 181 178 175 171 162 160 161 160 163 162 163 166 170 170 171 170 164 161 166 172 169 173 172 189 204 225 182 181 191 202 205 207 211 214 218 223 222 224 151 270 281 287 288 288 299 304 300 280 277 236 218 202 224 225 220 234 221 247 253 264 243 231 207 210 201 195 195 188 191 198 200
190 189 186 190 188 187 187 187 189 188 186 190 188 185 183 184 181 178 168 168 163 169 168 171 170 172 177 178 179 182 175 173 173 168 162 168 180 195 213 216 191 185 197 209 219 217 221 225 225 224 230 149 204 247 267 274 273 277 275 259 266 274 272 260 214 215 221 228 219 225 220 223 239 244 243 232 222 205 204 200 203 202 203 206 204
191 177 183 192 193 190 186 191 192 189 189 192 192 194 189 183 187 183 179 175 176 173 174 175 177 180 183 185 186 182 179 168 163 167 181 175 178 188 194 197 188 194 193 201 225 246 256 257 274 233 196 211 225 246 245 265 265 267 264 252 252 262 267 255 217 218 214 214 220 228 220 228 236 238 239 238 228 217 204 206 210 210 207 208 200
186 187 197 195 194 193 189 190 191 193 191 191 194 195 192 193 189 188 184 186 180 182 185 182 180 182 183 185 187 186 181 175 176 177 188 187 180 185 194 199 189 191 193 197 207 218 239 238 227 222 221 219 237 244 239 240 261 262 259 253 245 257 257 260 217 224 212 208 218 226 214 222 237 242 238 237 231 224 213 205 208 208 208 212 213
202 214 200 198 194 194 194 189 191 194 197 193 193 191 195 197 191 189 186 194 191 188 192 187 187 186 184 183 186 189 186 184 185 185 193 197 197 187 190 191 204 205 191 187 205 212 224 224 216 221 223 231 240 245 243 241 244 257 258 255 249 244 247 252 235 220 222 212 217 221 216 214 222 235 238 237 232 232 223 214 210 212 214 214 218
197 213 210 203 193 198 192 192 195 192 196 193 194 195 194 193 196 192 197 192 191 200 197 195 189 190 189 190 189 185 185 188 190 192 197 194 204 204 193 196 193 198 209 200 201 207 216 225 221 223 225 230 239 242 238 236 239 239 254 255 251 244 241 239 235 216 213 217 223 225 221 220 219 227 230 233 238 236 229 218 214 213 215 218 216
211 212 209 207 206 197 191 195 196 196 193 189 196 196 193 195 195 196 199 193 200 200 197 196 201 199 199 195 192 189 188 187 190 193 193 198 200 202 201 200 200 200 198 212 203 208 210 218 220 223 222 230 232 242 236 238 235 235 232 245 242 238 235 235 231 216 208 213 224 228 225 225 219 222 230 234 236 242 233 228 225 222 222 213 212
214 208 205 214 209 196 196 197 196 195 192 189 195 191 193 195 199 199 197 194 204 198 194 202 205 201 208 206 202 198 195 194 190 191 192 198 200 203 201 202 204 199 201 205 185 209 217 217 219 220 224 229 234 237 230 239 235 233 231 233 236 236 229 223 226 211 208 208 218 229 229 225 223 220 227 234 236 242 243 234 232 233 228 223 217
211 211 211 211 205 197 204 200 199 194 190 194 196 196 190 199 199 198 195 199 199 198 200 202 205 205 205 207 208 207 195 198 195 194 197 197 199 200 206 203 206 203 204 212 206 205 215 215 212 214 218 225 231 233 229 239 243 240 230 226 232 233 243 242 238 225 212 213 215 221 231 228 225 223 223 228 234 236 242 242 237 237 235 225 222
208 215 211 206 200 204 203 201 198 194 194 200 197 199 197 200 199 195 199 200 193 200 203 203 206 207 205 205 208 209 199 201 196 196 199 202 205 206 207 207 211 202 202 210 207 208 210 214 212 213 217 219 228 231 231 233 244 244 244 239 237 233 238 244 247 239 226 218 217 221 224 228 229 228 226 230 233 236 237 239 242 244 238 237 226
218 215 209 196 205 205 203 203 197 193 197 201 200 203 201 200 199 201 200 195 196 200 205 205 207 205 205 205 207 208 207 202 199 196 198 205 209 212 216 217 211 202 203 212 214 212 217 219 220 211 219 221 227 238 238 238 242 243 239 242 240 245 239 238 243 245 239 228 218 219 223 227 230 232 230 229 234 233 236 240 240 242 245 238 235
211 212 200 207 205 204 203 200 200 198 201 202 201 202 205 203 203 204 200 195 199 200 207 206 205 205 204 206 206 207 208 210 203 204 196 205 215 220 221 223 216 208 205 204 215 213 220 221 227 222 229 224 230 232 234 246 243 245 241 240 238 242 243 244 239 238 236 233 224 218 222 223 227 228 231 234 235 236 235 235 240 242 242 245 239
209 202 207 211 199 203 195 202 199 205 202 204 202 205 202 202 204 206 204 200 199 204 205 202 202 205 201 207 204 204 207 209 210 206 207 205 214 223 224 224 209 210 210 210 210 218 218 223 214 227 239 240 241 241 233 243 242 239 239 236 241 241 242 242 239 238 235 234 226 224 221 223 224 225 226 226 235 237 238 237 235 240 244 242 242
208 209 213 207 205 205 196 201 197 204 205 206 206 206 203 203 203 206 206 204 205 207 205 202 199 196 198 202 201 202 202 206 209 206 209 208 214 220 221 209 206 207 215 212 211 220 218 229 224 215 229 244 248 254 243 249 246 250 244 240 244 238 240 240 237 236 235 234 233 228 222 223 221 221 220 222 223 229 232 236 236 236 241 245 242
207 208 208 205 211 208 200 202 200 203 206 206 207 207 204 205 205 203 206 202 208 213 211 206 204 203 200 200 197 197 199 202 205 204 209 210 214 220 216 203 194 202 210 210 213 213 207 220 227 221 221 240 232 250 252 247 254 256 256 249 247 242 242 240 237 234 236 233 235 233 227 224 222 221 220 219 219 222 231 232 234 234 234 242 245
209 209 207 202 207 204 204 206 207 204 205 204 205 206 207 207 207 206 203 206 212 214 212 204 212 212 206 212 201 198 199 199 200 202 209 213 211 213 211 202 192 198 209 210 218 207 210 206 225 216 216 229 239 241 249 247 247 258 259 254 253 243 242 241 239 238 233 238 235 234 229 224 219 217 219 219 217 219 222 230 231 232 231 233 240
210 211 209 209 208 208 208 211 210 207 208 207 207 208 207 211 211 208 210 216 218 217 211 212 216 213 216 215 204 203 204 204 202 200 206 210 211 209 206 201 192 198 205 214 220 215 214 212 220 226 210 221 233 237 242 240 248 252 255 255 253 247 246 241 239 239 236 236 237 236 231 231 223 219 219 216 218 217 220 221 224 227 231 232 234
211 209 210 208 209 210 209 213 213 209 202 204 196 204 201 205 209 213 227 223 220 218 216 220 215 218 220 213 209 211 205 205 207 207 210 210 212 212 208 194 197 196 205 214 220 214 214 216 225 224 228 232 228 238 234 236 257 259 261 260 250 253 248 241 240 238 239 237 238 236 235 232 228 228 221 218 212 215 217 219 219 220 221 226 228
213 208 206 209 207 206 199 212 211 204 197 199 199 196 200 208 215 213 219 216 216 217 220 219 219 221 217 212 212 215 213 209 209 205 213 215 217 215 210 205 199 203 209 218 218 219 216 214 221 212 222 231 237 221 227 190 243 274 255 259 266 252 251 244 244 243 240 239 236 236 235 233 230 229 226 219 214 212 216 217 218 218 217 217 225
220 209 209 209 207 205 203 212 201 200 204 204 203 202 205 205 202 211 213 214 211 209 219 217 218 220 214 211 213 215 214 214 211 210 211 209 215 215 212 213 204 213 220 223 221 219 215 215 212 230 218 227 240 212 205 143 231 232 258 297 278 258 239 236 240 244 240 240 236 236 233 231 231 227 227 222 219 214 216 216 217 217 215 214 216
212 206 213 208 207 206 212 209 202 201 206 204 201 207 210 214 207 215 209 224 228 226 232 230 223 221 216 212 212 213 212 215 213 212 215 213 214 212 216 211 211 211 219 226 223 224 218 218 211 221 230 235 250 223 194 185 235 199 237 328 284 304 294 251 243 239 234 236 233 235 233 234 231 226 221 220 221 220 217 214 217 215 216 213 213
221 218 217 210 209 211 211 207 208 206 206 205 206 211 212 217 221 228 227 221 219 228 229 229 224 222 224 212 215 213 211 216 213 214 217 220 217 218 216 212 217 209 216 226 224 228 220 221 218 221 218 243 224 239 194 200 207 127 233 214 239 191 306 257 229 243 221 234 228 235 232 236 234 230 223 224 223 221 220 214 218 216 217 214 212
221 217 207 205 207 210 209 206 208 206 207 204 205 206 205 209 213 225 238 270 264 207 205 230 223 224 228 218 220 207 212 216 214 214 214 219 218 219 218 219 219 218 218 226 229 228 224 224 218 218 212 223 239 232 213 200 212 205 192 119 251 258 239 277 73 266 194 226 232 231 234 235 235 230 224 232 226 222 220 221 220 220 220 217 215
227 225 210 207 208 211 210 210 212 210 208 204 202 197 202 201 196 203 215 218 227 211 216 219 214 217 221 223 220 211 214 217 216 215 214 214 217 216 217 219 221 222 222 229 234 234 229 225 220 221 226 221 233 241 240 208 215 213 222 229 175 188 211 260 57 283 331 242 243 234 234 234 236 237 232 234 225 225 219 225 220 223 220 219 218
229 223 213 216 215 215 210 208 208 209 205 202 196 196 204 205 206 209 213 214 221 228 226 226 223 227 227 225 221 215 216 218 219 216 214 212 214 214 216 218 220 222 222 228 233 232 233 229 223 222 230 227 220 240 239 222 213 238 227 235 248 238 146 62 262 339 306 322 269 242 244 235 238 239 239 232 228 227 224 222 225 224 223 220 218
224 212 215 217 216 218 212 212 213 210 203 198 194 195 201 204 209 215 218 221 221 230 217 224 221 217 216 225 218 219 216 218 221 219 218 215 213 215 215 218 220 222 219 225 231 234 236 233 222 226 228 222 220 229 243 221 207 238 211 235 244 255 252 252 237 253 275 295 287 277 252 244 236 245 239 236 231 228 227 222 226 225 226 223 218
232 214 215 214 213 216 216 214 215 209 205 197 196 198 202 203 207 212 219 225 228 234 222 216 214 206 224 222 219 222 219 220 221 221 220 220 215 217 216 219 220 222 217 229 230 230 233 235 227 222 225 227 223 229 236 236 218 239 196 232 239 246 250 249 256 226 244 261 269 272 276 267 251 251 243 232 235 230 228 229 223 224 225 224 218
234 226 225 217 214 213 214 212 216 209 203 199 199 202 203 205 210 214 220 226 223 233 216 224 214 205 223 224 220 221 219 219 219 218 219 217 218 216 219 222 221 221 218 226 230 230 231 234 233 228 225 227 224 222 226 234 230 231 224 220 215 238 249 256 245 241 244 227 254 258 264 274 274 254 217 235 232 232 234 233 229 223 226 224 221
240 225 227 217 215 212 215 217 221 211 202 201 197 203 203 204 212 213 216 223 220 221 223 230 217 211 223 224 218 221 216 220 214 218 217 215 217 216 219 224 224 222 222 225 227 228 230 231 234 231 228 226 226 226 227 234 235 233 228 223 228 220 223 229 236 228 223 238 248 254 259 255 258 281 262 216 225 231 229 233 232 226 225 223 223